Stations météo

réclame
Mon MeteoGroup
Manston, Grande-Bretagne (3797): Température de l'air & dewpoint: 17.07.2018 01:00:00 - 23.07.2018 01:00:00 (BST)Manston, Grande-Bretagne (3797): Température de l'air -20cm & Température de l'air -100cm: 17.07.2018 01:00:00 - 23.07.2018 01:00:00 (BST)Manston, Grande-Bretagne (3797): Vitesse du vent: 17.07.2018 01:00:00 - 23.07.2018 01:00:00 (BST)Manston, Grande-Bretagne (3797): Direction du vent: 17.07.2018 01:00:00 - 23.07.2018 01:00:00 (BST)Manston, Grande-Bretagne (3797): reduced air pressure: 17.07.2018 01:00:00 - 23.07.2018 01:00:00 (BST)Manston, Grande-Bretagne (3797): visibility: 17.07.2018 01:00:00 - 23.07.2018 01:00:00 (BST)Manston, Grande-Bretagne (3797): Ensoleillement: 17.07.2018 01:00:00 - 23.07.2018 01:00:00 (BST)Manston, Grande-Bretagne (3797): Quantités de précipitations: 17.07.2018 01:00:00 - 23.07.2018 01:00:00 (BST)
Date & Time tt [°C] td [°C] tt -20cm [°C] tt -100cm [°C] ff [km/h] ff [knt] dd ppp [hPa] vv [km] sd [min] rr [mm]
23.07.2018 01:00:00 18,8 13,6 - - 8 4 SW 1016,9 50 - 0,0
23.07.2018 00:00:00 19,6 13,8 - - 8 4 SW 1016,9 50 0 0,0
22.07.2018 23:00:00 21,0 14,6 - - 9 5 SW 1016,7 50 0 0,0
22.07.2018 22:00:00 22,2 12,8 - - 11 6 SW 1016,4 40 0 0,0
22.07.2018 21:00:00 22,6 12,7 - - 2 1 NE 1016,0 40 0 0,0
22.07.2018 20:00:00 25,1 11,1 - - 9 5 WNW 1015,5 35 48 0,0
22.07.2018 19:00:00 26,2 15,4 - - 16 9 WSW 1015,2 40 54 0,0
22.07.2018 18:00:00 26,3 15,6 - - 16 9 SW 1015,1 50 12 0,0
22.07.2018 17:00:00 26,5 15,6 - - 16 9 SW 1015,2 40 18 0,0
22.07.2018 16:00:00 27,1 13,1 - - 11 6 NW 1015,3 35 48 0,0
22.07.2018 15:00:00 26,1 14,9 - - 8 4 N 1015,5 25 0 0,0
22.07.2018 14:00:00 25,1 14,7 - - 8 4 S 1015,6 27 12 0,0
22.07.2018 13:00:00 25,0 14,5 - - 5 3 N 1015,6 30 0 0,0
22.07.2018 12:00:00 24,2 14,9 - - 15 8 ESE 1015,7 25 30 0,0
22.07.2018 11:00:00 24,3 15,8 - - 13 7 ESE 1015,8 19 30 0,0
22.07.2018 10:00:00 24,4 15,0 20,5 18,0 8 4 W 1015,7 23 42 0,0
22.07.2018 09:00:00 23,1 15,2 - - 5 3 WNW 1015,8 35 60 0,0
22.07.2018 08:00:00 21,0 16,2 - - 5 3 W 1015,7 20 30 0,0
22.07.2018 07:00:00 19,3 15,9 - - 9 5 WNW 1015,5 15 0 0,0
22.07.2018 06:00:00 18,6 15,9 - - 8 4 WNW 1015,1 10 0 0,0
22.07.2018 05:00:00 17,9 15,3 - - 9 5 W 1014,8 15 0 0,0
22.07.2018 04:00:00 17,6 14,0 - - 11 6 W 1014,8 20 0 0,0
22.07.2018 03:00:00 18,1 14,0 - - 9 5 W 1014,6 22 0 0,0
22.07.2018 02:00:00 17,6 13,2 - - 13 7 WSW 1014,7 25 0 0,0
22.07.2018 01:00:00 18,3 13,1 - - 11 6 SW 1014,9 27 - 0,0
22.07.2018 00:00:00 19,2 13,3 - - 13 7 SSW 1014,9 25 0 0,0
21.07.2018 23:00:00 19,6 13,3 - - 11 6 SSW 1015,0 27 0 0,0
21.07.2018 22:00:00 20,3 12,2 - - 9 5 SW 1015,1 45 0 0,0
21.07.2018 21:00:00 21,5 11,7 - - 11 6 SSW 1014,5 45 0 0,0
21.07.2018 20:00:00 23,0 12,7 - - 15 8 SW 1014,1 35 36 0,0
21.07.2018 19:00:00 22,6 13,7 - - 13 7 SE 1013,9 30 42 0,0
21.07.2018 18:00:00 22,7 13,5 - - 13 7 SE 1014,1 30 48 0,0
21.07.2018 17:00:00 22,5 14,4 - - 15 8 SE 1014,3 30 60 0,0
21.07.2018 16:00:00 24,0 14,3 - - 21 11 ESE 1014,3 30 60 0,0
21.07.2018 15:00:00 24,7 13,1 - - 8 4 N 1014,2 30 60 0,0
21.07.2018 14:00:00 24,1 12,5 - - 9 5 NNE 1014,1 40 60 0,0
21.07.2018 13:00:00 23,6 12,9 - - 13 7 NNW 1014,2 30 60 0,0
21.07.2018 12:00:00 22,8 14,6 - - 15 8 NNW 1014,2 26 60 0,0
21.07.2018 11:00:00 22,0 15,1 - - 11 6 NW 1013,8 16 60 0,0
21.07.2018 10:00:00 20,9 15,3 19,5 17,7 9 5 NW 1013,8 19 54 0,0
21.07.2018 09:00:00 19,3 16,8 - - 9 5 WNW 1013,8 15 6 0,0
21.07.2018 08:00:00 17,3 16,5 - - 8 4 WNW 1013,6 5 0 0,0
21.07.2018 07:00:00 16,5 16,1 - - 5 3 W 1013,3 4,5 0 0,0
21.07.2018 06:00:00 15,8 15,4 - - 8 4 W 1013,1 3,6 0 0,0
21.07.2018 05:00:00 15,8 15,3 - - 8 4 W 1013,0 3,9 0 0,0
21.07.2018 04:00:00 15,7 15,1 - - 8 4 W 1012,9 4,2 0 0,0
21.07.2018 03:00:00 16,2 14,8 - - 5 3 W 1013,1 10 0 0,0
21.07.2018 02:00:00 15,9 14,3 - - 5 3 WNW 1013,4 14 0 0,0
21.07.2018 01:00:00 16,3 15,1 - - 8 4 WNW 1013,5 8 - 0,2
21.07.2018 00:00:00 16,8 15,5 - - 4 2 SW 1013,8 6 0 0,2
20.07.2018 23:00:00 17,2 15,0 - - 4 2 WSW 1013,6 10 0 0,0
20.07.2018 22:00:00 17,4 12,8 - - 5 3 SSW 1013,5 21 0 0,0
20.07.2018 21:00:00 17,5 12,8 - - 5 3 S 1013,5 27 0 0,0
20.07.2018 20:00:00 18,3 15,3 - - 4 2 SW 1013,4 16 0 0,0
20.07.2018 19:00:00 18,7 15,3 - - 8 4 SSW 1013,6 13 0 0,0
20.07.2018 18:00:00 19,6 14,6 - - 2 1 W 1013,6 22 0 0,0
20.07.2018 17:00:00 18,7 14,0 - - 5 3 SSW 1014,0 22 0 0,0
20.07.2018 16:00:00 17,8 14,1 - - 11 6 SSW 1014,8 12 0 0,0
20.07.2018 15:00:00 18,0 13,7 - - 13 7 S 1015,2 15 0 0,0
20.07.2018 14:00:00 19,9 13,5 - - 13 7 S 1015,3 17 0 0,0
20.07.2018 13:00:00 19,9 15,0 - - 8 4 SSW 1015,4 35 0 0,0
20.07.2018 12:00:00 19,5 15,6 - - 9 5 SSE 1015,4 12 0 0,0
20.07.2018 11:00:00 18,5 15,4 - - 13 7 SE 1015,3 11 0 0,0
20.07.2018 10:00:00 18,9 13,9 20,5 18,0 11 6 SE 1015,4 15 0 0,0
20.07.2018 09:00:00 19,3 12,8 - - 13 7 SE 1015,5 19 0 0,0
20.07.2018 08:00:00 19,0 14,0 - - 13 7 SE 1015,4 30 0 0,0
20.07.2018 07:00:00 18,7 16,1 - - 15 8 ESE 1015,4 26 0 0,0
20.07.2018 06:00:00 18,0 15,9 - - 11 6 ESE 1015,8 22 0 0,0
20.07.2018 05:00:00 18,1 16,0 - - 11 6 SE 1016,1 16 0 0,0
20.07.2018 04:00:00 18,0 15,6 - - 15 8 ESE 1016,1 16 0 0,0
20.07.2018 03:00:00 18,1 15,1 - - 13 7 ESE 1016,4 27 0 0,0
20.07.2018 02:00:00 17,4 14,0 - - 16 9 ESE 1016,7 35 - 0,0
20.07.2018 01:00:00 17,4 12,9 - - 15 8 E 1017,0 50 - 0,0
20.07.2018 00:00:00 17,2 12,5 - - 16 9 E 1017,4 50 0 0,0
19.07.2018 23:00:00 18,2 11,6 - - 15 8 E 1017,4 50 0 0,0
19.07.2018 22:00:00 18,0 11,9 - - 13 7 E 1017,7 50 0 0,0
19.07.2018 21:00:00 18,6 11,1 - - 16 9 E 1017,8 45 0 0,0
19.07.2018 20:00:00 19,3 11,5 - - 16 9 E 1017,8 50 12 0,0
19.07.2018 19:00:00 20,1 10,7 - - 18 10 E 1017,8 40 12 0,0
19.07.2018 18:00:00 21,4 7,4 - - 24 13 E 1017,9 45 60 0,0
19.07.2018 17:00:00 23,0 7,4 - - 21 11 E 1018,4 35 60 0,0
19.07.2018 16:00:00 22,8 7,4 - - 18 10 ENE 1019,0 35 60 0,0
19.07.2018 15:00:00 23,7 9,0 - - 18 10 E 1019,1 50 60 0,0
19.07.2018 14:00:00 23,6 10,3 - - 16 9 E 1019,3 35 60 0,0
19.07.2018 13:00:00 23,4 11,2 - - 16 9 E 1019,5 50 - 0,0
19.07.2018 12:00:00 - - - - - - - - - - -
19.07.2018 11:00:00 - - - - - - - - - - -
19.07.2018 10:00:00 - - - - - - - - - - -
19.07.2018 09:00:00 - - - - - - - - - - -
19.07.2018 08:00:00 - - - - - - - - - - -
19.07.2018 07:00:00 - - - - - - - - - - -
19.07.2018 06:00:00 - - - - - - - - - - -
19.07.2018 05:00:00 - - - - - - - - - - -
19.07.2018 04:00:00 - - - - - - - - - - -
19.07.2018 03:00:00 - - - - - - - - - - -
19.07.2018 02:00:00 - - - - - - - - - - -
19.07.2018 01:00:00 - - - - - - - - - - -
19.07.2018 00:00:00 - - - - - - - - - - -
18.07.2018 23:00:00 - - - - - - - - - - -
18.07.2018 22:00:00 - - - - - - - - - - -
18.07.2018 21:00:00 - - - - - - - - - - -
18.07.2018 20:00:00 - - - - - - - - - - -
18.07.2018 19:00:00 - - - - - - - - - - -
18.07.2018 18:00:00 - - - - - - - - - - -
18.07.2018 17:00:00 - - - - - - - - - - -
18.07.2018 16:00:00 - - - - - - - - - - -
18.07.2018 15:00:00 - - - - - - - - - - -
18.07.2018 14:00:00 - - - - - - - - - - -
18.07.2018 13:00:00 - - - - - - - - - - -
18.07.2018 12:00:00 - - - - - - - - - - -
18.07.2018 11:00:00 - - - - - - - - - - -
18.07.2018 10:00:00 - - - - - - - - - - -
18.07.2018 09:00:00 - - - - - - - - - - -
18.07.2018 08:00:00 - - - - - - - - - - -
18.07.2018 07:00:00 - - - - - - - - - - -
18.07.2018 06:00:00 - - - - - - - - - - -
18.07.2018 05:00:00 - - - - - - - - - - -
18.07.2018 04:00:00 - - - - - - - - - - -
18.07.2018 03:00:00 - - - - - - - - - - -
18.07.2018 02:00:00 - - - - - - - - - - -
18.07.2018 01:00:00 - - - - - - - - - - -
18.07.2018 00:00:00 - - - - - - - - - - -
17.07.2018 23:00:00 - - - - - - - - - - -
17.07.2018 22:00:00 - - - - - - - - - - -
17.07.2018 21:00:00 - - - - - - - - - - -
17.07.2018 20:00:00 - - - - - - - - - - -
17.07.2018 19:00:00 - - - - - - - - - - -
17.07.2018 18:00:00 - - - - - - - - - - -
17.07.2018 17:00:00 - - - - - - - - - - -
17.07.2018 16:00:00 - - - - - - - - - - -
17.07.2018 15:00:00 - - - - - - - - - - -
17.07.2018 14:00:00 - - - - - - - - - - -
17.07.2018 13:00:00 - - - - - - - - - - -
17.07.2018 12:00:00 - - - - - - - - - - -
17.07.2018 11:00:00 - - - - - - - - - - -
17.07.2018 10:00:00 - - - - - - - - - - -
17.07.2018 09:00:00 - - - - - - - - - - -
17.07.2018 08:00:00 - - - - - - - - - - -
17.07.2018 07:00:00 - - - - - - - - - - -
17.07.2018 06:00:00 - - - - - - - - - - -
17.07.2018 05:00:00 - - - - - - - - - - -
17.07.2018 04:00:00 - - - - - - - - - - -
17.07.2018 03:00:00 - - - - - - - - - - -
17.07.2018 02:00:00 - - - - - - - - - - -
17.07.2018 01:00:00 - - - - - - - - - - -

tt = Température de l'air
td = dewpoint
tt -20cm = Température de l'air -20cm
tt -100cm = Température de l'air -100cm
ff = Vitesse du vent
dd = Direction du vent
ppp = reduced air pressure
vv = visibility
sd = Ensoleillement
rr = Quantités de précipitations

stations d'obs. à proximité